Home   Weather   Ann Arbor   Past weeks

Flag for USA Past Weather in Ann Arbor, Michigan, USA — Yesterday and Last 2 Weeks

Now
59 °F

Overcast.


Feels Like: 58 °F
Forecast: 50 / 66 °F
Wind: 7 mph from Southeast

Location: Ann Arbor Municipal Airport

Current Time: Apr 25, 2017 at 12:48:43 pm

Latest Report: Apr 25, 2017 at 11:53 am


Visibility: 10 mi

Pressure: 29.85 "Hg

Humidity: 72%

Dew Point: 50 °F

Location of Ann ArborLocation

Past Weather in Ann Arbor — Graph

°F

Ann Arbor Temperature Yesterday

Maximum temperature yesterday: 69 °F (at 3:53 pm)
Minimum temperature yesterday: 39 °F (at 6:53 am)
Average temperature yesterday: 55 °F

High & Low Weather Summary for the Past Weeks

 TemperatureHumidityPressure
High80 °F (Apr 15, 1:53 pm)100% (Apr 11, 7:43 am)30.48 "Hg (Apr 11, 7:43 am)
Low30 °F (Apr 23, 5:44 am)26% (Apr 17, 1:53 pm)29.76 "Hg (Apr 20, 7:08 pm)
Average55 °F69%30.08 "Hg
* Reported Apr 10 10:53 am — Apr 25 10:53 am, Ann Arbor, Weather by CustomWeather, © 2017

Note: Actual official high and low records may vary slightly from our data, if they occured in-between our weather recording intervals... More about our weather records

Advertising

Ann Arbor Weather History for the Previous 24 Hours

Scroll right to see more
 ConditionsComfort  
Time TempWeatherWind HumidityBarometerVisibility
10:53 am
Tue, Apr 25
56 °FOvercast.12 mph77%29.85 "Hg10 mi
9:53 am55 °FMostly cloudy.9 mph74%29.86 "Hg10 mi
8:53 am53 °FMostly cloudy.7 mph77%29.85 "Hg10 mi
7:53 am52 °FOvercast.5 mph77%29.85 "Hg10 mi
6:53 am51 °FOvercast.6 mph80%29.85 "Hg10 mi
5:53 am50 °FOvercast.6 mph80%29.85 "Hg10 mi
4:53 am49 °FPassing clouds.3 mph84%29.86 "Hg10 mi
3:53 am49 °FPassing clouds.3 mph84%29.86 "Hg10 mi
2:53 am53 °FClear.7 mph77%29.85 "Hg10 mi
1:53 am53 °FPassing clouds.5 mph74%29.87 "Hg10 mi
12:53 am53 °FClear.7 mph69%29.87 "Hg10 mi
11:53 pm
Mon, Apr 24
54 °FClear.8 mph64%29.89 "Hg10 mi
10:53 pm56 °FClear.9 mph55%29.88 "Hg10 mi
9:53 pm57 °FClear.9 mph47%29.90 "Hg10 mi
8:53 pm60 °FClear.14 mph35%29.91 "Hg10 mi
7:53 pm64 °FSunny.9 mph34%29.91 "Hg10 mi
6:53 pm67 °FSunny.10 mph29%29.91 "Hg10 mi
5:53 pm69 °FSunny.10 mph31%29.93 "Hg10 mi
4:53 pm69 °FSunny.12 mph32%29.95 "Hg10 mi
3:53 pm69 °FSunny.13 mph31%29.97 "Hg10 mi
2:53 pm68 °FSunny.14 mph32%30.00 "Hg10 mi
1:53 pm67 °FSunny.9 mph33%30.01 "Hg10 mi
12:53 pm65 °FSunny.13 mph34%30.04 "Hg10 mi
Weather by CustomWeather, © 2017

See weather overviewHow to use our weather pages